• In Hungary
  • List of Countries
  • For 7 days
  • Water Temperature
  • Satellite Maps
  • Weather Map
  • News
  • Weather Widgets
  • user-avatar
    Login

    Hourly Weather Kotokel

    Today, 22 October, Sunday

    Time Temperature Precipitation Wind Pressure Humidity
    00:00 -1°C° 0 mm 2 mps 727 mmHg 91%
    01:00 -2°C° 0 mm 2 mps 726 mmHg 90%
    02:00 -2°C° 0 mm 2 mps 726 mmHg 89%
    03:00 -2°C° 0 mm 2 mps 726 mmHg 88%
    04:00 -2°C° 0 mm 2 mps 726 mmHg 87%
    05:00 -1°C° 0 mm 2 mps 726 mmHg 87%
    06:00 -1°C° 0 mm 2 mps 726 mmHg 87%
    07:00 -1°C° 0 mm 2 mps 726 mmHg 85%
    08:00 +2°C° 0 mm 2 mps 726 mmHg 80%
    09:00 +4°C° 0 mm 2 mps 726 mmHg 74%
    10:00 +6°C° 0 mm 2 mps 725 mmHg 69%
    11:00 +7°C° 0 mm 2 mps 725 mmHg 66%
    12:00 +8°C° 0 mm 2 mps 724 mmHg 63%
    13:00 +9°C° 0 mm 2 mps 724 mmHg 60%
    14:00 +8°C° 0 mm 2 mps 724 mmHg 64%
    15:00 +8°C° 0 mm 1 mps 723 mmHg 69%
    16:00 +7°C° 0 mm 1 mps 723 mmHg 74%
    17:00 +6°C° 0 mm 1 mps 723 mmHg 76%
    18:00 +4°C° 0 mm 2 mps 723 mmHg 77%
    19:00 +3°C° 0 mm 2 mps 723 mmHg 79%
    20:00 +3°C° 0 mm 2 mps 723 mmHg 79%
    21:00 +2°C° 0 mm 2 mps 722 mmHg 78%
    22:00 +2°C° 0 mm 2 mps 722 mmHg 78%
    23:00 +2°C° 0 mm 2 mps 722 mmHg 78%

    Tomorrow, 23 October, Monday

    Time Temperature Precipitation Wind Pressure Humidity
    00:00 +2°C° 0 mm 2 mps 721 mmHg 78%
    01:00 +2°C° 0 mm 2 mps 721 mmHg 78%
    02:00 +2°C° 0 mm 2 mps 721 mmHg 78%
    03:00 +2°C° 0 mm 2 mps 720 mmHg 78%
    04:00 +2°C° 0 mm 2 mps 720 mmHg 79%
    05:00 +3°C° 0 mm 1 mps 720 mmHg 78%
    06:00 +3°C° 0 mm 1 mps 720 mmHg 78%
    07:00 +3°C° 0 mm 1 mps 720 mmHg 77%
    08:00 +5°C° 0 mm 1 mps 720 mmHg 71%
    09:00 +7°C° 0 mm 1 mps 720 mmHg 64%
    10:00 +9°C° 0 mm 1 mps 720 mmHg 57%
    11:00 +9°C° 0 mm 2 mps 720 mmHg 56%
    12:00 +10°C° 0 mm 2 mps 720 mmHg 55%
    13:00 +10°C° 0 mm 2 mps 719 mmHg 54%
    14:00 +9°C° 0 mm 2 mps 720 mmHg 59%
    15:00 +8°C° 0 mm 2 mps 720 mmHg 65%
    16:00 +6°C° 0 mm 2 mps 720 mmHg 71%
    17:00 +6°C° 0 mm 2 mps 720 mmHg 73%
    18:00 +5°C° 0 mm 2 mps 721 mmHg 76%
    19:00 +4°C° 0 mm 2 mps 722 mmHg 79%
    20:00 +3°C° 0 mm 3 mps 723 mmHg 82%
    21:00 +3°C° 0 mm 3 mps 723 mmHg 85%
    22:00 +3°C° 0 mm 4 mps 724 mmHg 87%
    23:00 +3°C° 0 mm 4 mps 725 mmHg 87%

    Day after tomorrow, 24 October, Tuesday

    Time Temperature Precipitation Wind Pressure Humidity
    00:00 +3°C° 0 mm 3 mps 725 mmHg 86%
    01:00 +2°C° 0 mm 3 mps 726 mmHg 86%
    02:00 +1°C° 0 mm 3 mps 726 mmHg 85%
    03:00 +1°C° 0 mm 3 mps 727 mmHg 84%
    04:00 0°C° 0 mm 3 mps 727 mmHg 83%
    05:00 -1°C° 0 mm 2 mps 728 mmHg 83%
    06:00 -1°C° 0 mm 2 mps 728 mmHg 84%
    07:00 -2°C° 0 mm 2 mps 728 mmHg 84%
    08:00 +1°C° 0 mm 2 mps 728 mmHg 75%
    09:00 +3°C° 0 mm 2 mps 729 mmHg 65%
    10:00 +4°C° 0 mm 2 mps 729 mmHg 56%
    11:00 +5°C° 0 mm 2 mps 728 mmHg 54%
    12:00 +5°C° 0 mm 2 mps 728 mmHg 51%
    13:00 +6°C° 0 mm 2 mps 727 mmHg 49%
    14:00 +6°C° 0 mm 1 mps 727 mmHg 54%
    15:00 +5°C° 0 mm 1 mps 727 mmHg 59%
    16:00 +3°C° 0 mm 0 mps 726 mmHg 64%
    17:00 +3°C° 0 mm 1 mps 726 mmHg 66%
    18:00 +2°C° 0 mm 1 mps 726 mmHg 69%
    19:00 +1°C° 0 mm 1 mps 726 mmHg 72%
    20:00 +1°C° 0 mm 1 mps 726 mmHg 73%
    21:00 +1°C° 0 mm 1 mps 726 mmHg 73%
    22:00 +2°C° 0 mm 1 mps 725 mmHg 74%
    23:00 +2°C° 0 mm 1 mps 725 mmHg 75%

    25 October, Wednesday

    Time Temperature Precipitation Wind Pressure Humidity
    00:00 +2°C° 0 mm 1 mps 725 mmHg 76%
    01:00 +2°C° 0 mm 1 mps 724 mmHg 77%
    02:00 +2°C° 0 mm 1 mps 724 mmHg 77%
    03:00 +2°C° 0 mm 1 mps 724 mmHg 77%
    04:00 +2°C° 0 mm 1 mps 723 mmHg 77%
    05:00 +2°C° 0 mm 1 mps 723 mmHg 77%
    06:00 +2°C° 0 mm 1 mps 723 mmHg 77%
    07:00 +2°C° 0 mm 1 mps 723 mmHg 76%
    08:00 +4°C° 0 mm 1 mps 723 mmHg 70%
    09:00 +7°C° 0 mm 1 mps 723 mmHg 63%
    10:00 +9°C° 0 mm 1 mps 723 mmHg 56%
    11:00 +9°C° 0 mm 1 mps 722 mmHg 56%
    12:00 +10°C° 0 mm 1 mps 722 mmHg 55%
    13:00 +11°C° 0 mm 1 mps 722 mmHg 55%
    14:00 +9°C° 0 mm 1 mps 721 mmHg 62%
    15:00 +7°C° 0 mm 1 mps 721 mmHg 68%
    16:00 +6°C° 0 mm 1 mps 721 mmHg 75%
    17:00 +5°C° 0 mm 1 mps 721 mmHg 77%
    18:00 +4°C° 0 mm 1 mps 721 mmHg 79%
    19:00 +3°C° 0 mm 1 mps 721 mmHg 81%
    20:00 +3°C° 0 mm 1 mps 721 mmHg 81%
    21:00 +3°C° 0 mm 1 mps 721 mmHg 81%
    22:00 +3°C° 0 mm 1 mps 721 mmHg 81%
    23:00 +3°C° 0 mm 1 mps 721 mmHg 81%

    26 October, Thursday

    Time Temperature Precipitation Wind Pressure Humidity
    00:00 +3°C° 0 mm 1 mps 721 mmHg 82%
    01:00 +3°C° 0 mm 1 mps 720 mmHg 82%
    02:00 +2°C° 0 mm 2 mps 720 mmHg 83%
    03:00 +2°C° 0 mm 2 mps 719 mmHg 84%
    04:00 +2°C° 0 mm 2 mps 719 mmHg 84%
    05:00 +2°C° 0 mm 2 mps 718 mmHg 84%
    06:00 +2°C° 0 mm 2 mps 718 mmHg 84%
    07:00 +2°C° 0 mm 2 mps 718 mmHg 84%
    08:00 +4°C° 0 mm 2 mps 717 mmHg 77%
    09:00 +5°C° 0 mm 2 mps 717 mmHg 71%
    10:00 +7°C° 0 mm 2 mps 716 mmHg 64%
    11:00 +8°C° 0 mm 3 mps 716 mmHg 63%
    12:00 +7°C° 0 mm 4 mps 716 mmHg 62%
    13:00 +8°C° 0 mm 4 mps 716 mmHg 61%
    14:00 +7°C° 0 mm 4 mps 716 mmHg 67%
    15:00 +5°C° 0 mm 4 mps 716 mmHg 74%
    16:00 +4°C° 0 mm 4 mps 716 mmHg 80%
    17:00 +3°C° 0.1 mm 4 mps 717 mmHg 82%
    18:00 +3°C° 0.1 mm 4 mps 718 mmHg 84%
    19:00 +1°C° 0.1 mm 4 mps 719 mmHg 86%
    20:00 0°C° 0.1 mm 4 mps 719 mmHg 84%
    21:00 0°C° 0.1 mm 5 mps 720 mmHg 82%
    22:00 -1°C° 0.1 mm 5 mps 721 mmHg 80%
    23:00 -1°C° 0 mm 5 mps 721 mmHg 77%

    27 October, Friday

    Time Temperature Precipitation Wind Pressure Humidity
    00:00 -2°C° 0 mm 5 mps 722 mmHg 74%
    01:00 -2°C° 0 mm 5 mps 722 mmHg 72%
    02:00 -2°C° 0 mm 5 mps 723 mmHg 70%
    03:00 -2°C° 0 mm 5 mps 723 mmHg 69%
    04:00 -4°C° 0 mm 5 mps 724 mmHg 67%
    05:00 -4°C° 0 mm 5 mps 724 mmHg 67%
    06:00 -4°C° 0 mm 5 mps 724 mmHg 67%
    07:00 -4°C° 0 mm 5 mps 725 mmHg 67%
    08:00 -4°C° 0 mm 5 mps 725 mmHg 65%
    09:00 -3°C° 0 mm 6 mps 725 mmHg 64%
    10:00 -3°C° 0 mm 6 mps 725 mmHg 62%
    11:00 -3°C° 0.1 mm 6 mps 725 mmHg 62%
    12:00 -3°C° 0.1 mm 6 mps 725 mmHg 62%
    13:00 -3°C° 0.1 mm 6 mps 724 mmHg 62%
    14:00 -2°C° 0.1 mm 5 mps 725 mmHg 64%
    15:00 -2°C° 0.1 mm 5 mps 725 mmHg 66%
    16:00 -2°C° 0.1 mm 5 mps 725 mmHg 68%
    17:00 -2°C° 0.1 mm 5 mps 726 mmHg 71%
    18:00 -3°C° 0.1 mm 6 mps 726 mmHg 73%
    19:00 -3°C° 0.1 mm 6 mps 726 mmHg 76%
    20:00 -3°C° 0.2 mm 6 mps 726 mmHg 78%
    21:00 -3°C° 0.2 mm 6 mps 726 mmHg 80%
    22:00 -3°C° 0.2 mm 7 mps 726 mmHg 81%
    23:00 -3°C° 0.2 mm 7 mps 726 mmHg 78%
    Show more